Location: Gorze? G�rny
(49.8500°N, 19.5000°E)
Time: 04:12:05
(UTC+00:00)

ERBS - Pass Details

Date: 13 May 2021
Orbit: 399 x 417 km, 57.0° (Epoch: 23 June)

Event Time Altitude Azimuth Distance (km) Brightness Sun altitude
Rises 19:58:03 0° 302° (WNW) 2,352 7.6 -12.9°
Reaches altitude 10° 20:00:14 10° 311° (NW) 1,492 6.4 -13.2°
Maximum altitude 20:03:22 37° 21° (NNE) 669 3.5 -13.5°
Enters shadow 20:06:05 13° 88° (E) 1,340 4.5 -13.7°
